Time,TemperatureF,DewpointF,PressureIn,WindDirection,WindDirectionDegrees,WindSpeedMPH,WindSpeedGustMPH,Humidity,HourlyPrecipIn,Conditions,Clouds,dailyrainin,SoftwareType,DateUTC
2013-11-28 00:00:00,32.4,22.7,30.10,NE,45,0.0,14.0,67,0.00,,,0.00,Wunderground v.1.13,2013-11-28 07:00:00,
2013-11-28 00:05:00,32.2,23.2,30.10,NE,45,0.0,14.0,69,0.00,,,0.00,Wunderground v.1.13,2013-11-28 07:05:00,
2013-11-28 00:09:00,32.4,23.4,30.10,NE,45,0.0,14.0,69,0.00,,,0.00,Wunderground v.1.13,2013-11-28 07:09:00,
2013-11-28 00:15:00,32.5,23.5,30.10,NE,45,0.0,14.0,69,0.00,,,0.00,Wunderground v.1.13,2013-11-28 07:15:00,
2013-11-28 00:20:00,32.4,23.4,30.10,NE,45,0.0,14.0,69,0.00,,,0.00,Wunderground v.1.13,2013-11-28 07:20:00,
2013-11-28 00:25:00,31.9,22.9,30.10,NE,45,0.0,14.0,69,0.00,,,0.00,Wunderground v.1.13,2013-11-28 07:25:00,
2013-11-28 00:29:00,31.2,22.2,30.10,NE,45,0.0,14.0,69,0.00,,,0.00,Wunderground v.1.13,2013-11-28 07:29:00,
2013-11-28 00:34:00,30.3,21.7,30.10,NE,45,0.0,14.0,70,0.00,,,0.00,Wunderground v.1.13,2013-11-28 07:34:00,
2013-11-28 00:40:00,29.7,21.8,30.10,NE,45,0.0,14.0,72,0.00,,,0.00,Wunderground v.1.13,2013-11-28 07:40:00,
2013-11-28 00:50:00,29.0,21.7,30.11,NE,45,0.0,14.0,74,0.00,,,0.00,Wunderground v.1.13,2013-11-28 07:50:00,
2013-11-28 00:55:00,28.5,21.3,30.11,NE,45,0.0,14.0,74,0.00,,,0.00,Wunderground v.1.13,2013-11-28 07:55:00,
2013-11-28 01:00:00,28.1,21.2,30.12,NE,45,0.0,14.0,75,0.00,,,0.00,Wunderground v.1.13,2013-11-28 08:00:00,
2013-11-28 01:04:00,27.8,20.9,30.12,NE,45,0.0,14.0,75,0.00,,,0.00,Wunderground v.1.13,2013-11-28 08:04:00,
2013-11-28 01:09:00,27.5,20.6,30.12,NE,45,0.0,14.0,75,0.00,,,0.00,Wunderground v.1.13,2013-11-28 08:09:00,
2013-11-28 01:14:00,27.0,20.4,30.13,NE,45,0.0,14.0,76,0.00,,,0.00,Wunderground v.1.13,2013-11-28 08:14:00,
2013-11-28 01:20:00,26.7,20.5,30.13,NE,45,0.0,14.0,77,0.00,,,0.00,Wunderground v.1.13,2013-11-28 08:20:00,
2013-11-28 01:25:00,26.6,20.4,30.13,NE,45,0.0,14.0,77,0.00,,,0.00,Wunderground v.1.13,2013-11-28 08:25:00,
2013-11-28 01:30:00,26.4,20.2,30.13,NE,45,0.0,14.0,77,0.00,,,0.00,Wunderground v.1.13,2013-11-28 08:30:00,
2013-11-28 01:35:00,26.1,19.9,30.13,NE,45,0.0,14.0,77,0.00,,,0.00,Wunderground v.1.13,2013-11-28 08:35:00,
2013-11-28 01:39:00,25.8,19.9,30.13,NE,45,0.0,14.0,78,0.00,,,0.00,Wunderground v.1.13,2013-11-28 08:39:00,
2013-11-28 01:44:00,25.6,19.7,30.13,NE,45,0.0,14.0,78,0.00,,,0.00,Wunderground v.1.13,2013-11-28 08:44:00,
2013-11-28 01:49:00,25.4,19.8,30.13,NE,45,0.0,14.0,79,0.00,,,0.00,Wunderground v.1.13,2013-11-28 08:49:00,
2013-11-28 01:54:00,25.3,20.0,30.13,NE,45,0.0,14.0,80,0.00,,,0.00,Wunderground v.1.13,2013-11-28 08:54:00,
2013-11-28 01:59:00,25.3,20.0,30.13,NE,45,0.0,14.0,80,0.00,,,0.00,Wunderground v.1.13,2013-11-28 08:59:00,
2013-11-28 02:04:00,25.1,19.5,30.14,NE,45,0.0,14.0,79,0.00,,,0.00,Wunderground v.1.13,2013-11-28 09:04:00,
2013-11-28 02:09:00,25.0,19.7,30.14,NE,45,0.0,14.0,80,0.00,,,0.00,Wunderground v.1.13,2013-11-28 09:09:00,
2013-11-28 02:14:00,25.0,19.7,30.14,NE,45,0.0,14.0,80,0.00,,,0.00,Wunderground v.1.13,2013-11-28 09:14:00,
2013-11-28 02:20:00,25.0,19.7,30.15,NE,45,0.0,14.0,80,0.00,,,0.00,Wunderground v.1.13,2013-11-28 09:20:00,
2013-11-28 02:25:00,24.7,19.4,30.15,NE,45,0.0,14.0,80,0.00,,,0.00,Wunderground v.1.13,2013-11-28 09:25:00,
2013-11-28 02:30:00,24.5,19.2,30.14,NE,45,0.0,14.0,80,0.00,,,0.00,Wunderground v.1.13,2013-11-28 09:30:00,
2013-11-28 02:35:00,24.4,19.4,30.14,NE,45,0.0,14.0,81,0.00,,,0.00,Wunderground v.1.13,2013-11-28 09:35:00,
2013-11-28 02:40:00,24.2,19.2,30.14,NE,45,0.0,14.0,81,0.00,,,0.00,Wunderground v.1.13,2013-11-28 09:40:00,
2013-11-28 02:45:00,24.2,19.2,30.15,NE,45,0.0,14.0,81,0.00,,,0.00,Wunderground v.1.13,2013-11-28 09:45:00,
2013-11-28 02:50:00,24.2,19.2,30.15,NE,45,0.0,14.0,81,0.00,,,0.00,Wunderground v.1.13,2013-11-28 09:50:00,
2013-11-28 02:55:00,24.1,19.1,30.15,NE,45,0.0,14.0,81,0.00,,,0.00,Wunderground v.1.13,2013-11-28 09:55:00,
2013-11-28 02:59:00,23.9,18.9,30.15,NE,45,0.0,14.0,81,0.00,,,0.00,Wunderground v.1.13,2013-11-28 09:59:00,
2013-11-28 03:09:00,23.8,19.1,30.15,NE,45,0.0,14.0,82,0.00,,,0.00,Wunderground v.1.13,2013-11-28 10:09:00,
2013-11-28 03:14:00,23.6,18.9,30.15,NE,45,0.0,14.0,82,0.00,,,0.00,Wunderground v.1.13,2013-11-28 10:14:00,
2013-11-28 03:20:00,23.5,18.8,30.15,NE,45,0.0,14.0,82,0.00,,,0.00,Wunderground v.1.13,2013-11-28 10:20:00,
2013-11-28 03:25:00,23.8,19.4,30.15,NE,45,0.0,14.0,83,0.00,,,0.00,Wunderground v.1.13,2013-11-28 10:25:00,
2013-11-28 03:30:00,23.8,19.1,30.15,NE,45,0.0,14.0,82,0.00,,,0.00,Wunderground v.1.13,2013-11-28 10:30:00,
2013-11-28 03:35:00,23.6,19.2,30.15,NE,45,0.0,14.0,83,0.00,,,0.00,Wunderground v.1.13,2013-11-28 10:35:00,
2013-11-28 03:40:00,23.6,18.9,30.15,NE,45,0.0,14.0,82,0.00,,,0.00,Wunderground v.1.13,2013-11-28 10:40:00,
2013-11-28 03:45:00,23.6,18.9,30.15,NE,45,0.0,14.0,82,0.00,,,0.00,Wunderground v.1.13,2013-11-28 10:45:00,
2013-11-28 03:50:00,23.6,19.2,30.15,NE,45,0.0,14.0,83,0.00,,,0.00,Wunderground v.1.13,2013-11-28 10:50:00,
2013-11-28 03:54:00,24.2,19.8,30.15,NE,45,0.0,14.0,83,0.00,,,0.00,Wunderground v.1.13,2013-11-28 10:54:00,
2013-11-28 03:59:00,24.5,20.1,30.16,NE,45,0.0,14.0,83,0.00,,,0.00,Wunderground v.1.13,2013-11-28 10:59:00,
2013-11-28 04:04:00,25.1,20.9,30.16,NE,45,0.0,14.0,84,0.00,,,0.00,Wunderground v.1.13,2013-11-28 11:04:00,
2013-11-28 04:09:00,25.7,21.3,30.16,NE,45,0.0,14.0,83,0.00,,,0.00,Wunderground v.1.13,2013-11-28 11:09:00,
2013-11-28 04:14:00,26.0,21.3,30.17,NE,45,0.0,14.0,82,0.00,,,0.00,Wunderground v.1.13,2013-11-28 11:14:00,
2013-11-28 04:19:00,26.0,21.0,30.17,NE,45,0.0,14.0,81,0.00,,,0.00,Wunderground v.1.13,2013-11-28 11:19:00,
2013-11-28 04:24:00,25.8,20.8,30.17,South,170,0.0,14.0,81,0.00,,,0.00,Wunderground v.1.13,2013-11-28 11:24:00,
2013-11-28 04:29:00,25.7,20.7,30.17,SW,229,0.0,14.0,81,0.00,,,0.00,Wunderground v.1.13,2013-11-28 11:29:00,
2013-11-28 04:34:00,25.6,20.6,30.18,SW,229,0.0,14.0,81,0.00,,,0.00,Wunderground v.1.13,2013-11-28 11:34:00,
2013-11-28 04:39:00,25.4,20.1,30.18,SW,229,0.0,14.0,80,0.00,,,0.00,Wunderground v.1.13,2013-11-28 11:39:00,
2013-11-28 04:44:00,25.3,20.3,30.18,SW,229,0.0,14.0,81,0.00,,,0.00,Wunderground v.1.13,2013-11-28 11:44:00,
2013-11-28 04:49:00,25.3,20.0,30.18,SW,230,0.0,14.0,80,0.00,,,0.00,Wunderground v.1.13,2013-11-28 11:49:00,
2013-11-28 04:55:00,25.0,19.7,30.18,SW,230,0.0,14.0,80,0.00,,,0.00,Wunderground v.1.13,2013-11-28 11:55:00,
2013-11-28 05:00:00,25.0,19.7,30.19,SW,230,0.0,14.0,80,0.00,,,0.00,Wunderground v.1.13,2013-11-28 12:00:00,
2013-11-28 05:05:00,24.8,19.5,30.19,SW,230,0.0,14.0,80,0.00,,,0.00,Wunderground v.1.13,2013-11-28 12:05:00,
2013-11-28 05:09:00,24.5,19.2,30.19,SW,230,0.0,14.0,80,0.00,,,0.00,Wunderground v.1.13,2013-11-28 12:09:00,
2013-11-28 05:15:00,24.2,18.9,30.19,SW,230,0.0,14.0,80,0.00,,,0.00,Wunderground v.1.13,2013-11-28 12:15:00,
2013-11-28 05:20:00,23.8,18.5,30.19,SW,230,0.0,14.0,80,0.00,,,0.00,Wunderground v.1.13,2013-11-28 12:20:00,
2013-11-28 05:24:00,23.5,18.2,30.19,SW,230,0.0,14.0,80,0.00,,,0.00,Wunderground v.1.13,2013-11-28 12:24:00,
2013-11-28 05:29:00,23.0,17.7,30.19,SW,230,0.0,14.0,80,0.00,,,0.00,Wunderground v.1.13,2013-11-28 12:29:00,
2013-11-28 05:34:00,22.7,17.5,30.20,SW,230,0.0,14.0,80,0.00,,,0.00,Wunderground v.1.13,2013-11-28 12:34:00,
2013-11-28 05:40:00,22.4,17.2,30.20,SW,230,0.0,14.0,80,0.00,,,0.00,Wunderground v.1.13,2013-11-28 12:40:00,
2013-11-28 05:44:00,21.9,16.7,30.20,SW,230,0.0,14.0,80,0.00,,,0.00,Wunderground v.1.13,2013-11-28 12:44:00,
2013-11-28 05:49:00,21.6,16.7,30.20,SW,230,0.0,14.0,81,0.00,,,0.00,Wunderground v.1.13,2013-11-28 12:49:00,
2013-11-28 05:54:00,21.3,16.4,30.20,SW,230,0.0,14.0,81,0.00,,,0.00,Wunderground v.1.13,2013-11-28 12:54:00,
2013-11-28 05:59:00,21.3,16.7,30.20,SW,230,0.0,14.0,82,0.00,,,0.00,Wunderground v.1.13,2013-11-28 12:59:00,
2013-11-28 06:04:00,21.0,16.4,30.20,SW,230,0.0,14.0,82,0.00,,,0.00,Wunderground v.1.13,2013-11-28 13:04:00,
2013-11-28 06:09:00,20.5,15.9,30.20,SW,230,0.0,14.0,82,0.00,,,0.00,Wunderground v.1.13,2013-11-28 13:09:00,
2013-11-28 06:15:00,20.5,15.9,30.21,SW,230,0.0,14.0,82,0.00,,,0.00,Wunderground v.1.13,2013-11-28 13:15:00,
2013-11-28 06:20:00,20.3,15.7,30.21,SW,230,0.0,14.0,82,0.00,,,0.00,Wunderground v.1.13,2013-11-28 13:20:00,
2013-11-28 06:25:00,20.2,15.9,30.21,SW,230,0.0,14.0,83,0.00,,,0.00,Wunderground v.1.13,2013-11-28 13:25:00,
2013-11-28 06:30:00,20.0,15.7,30.21,SW,230,0.0,14.0,83,0.00,,,0.00,Wunderground v.1.13,2013-11-28 13:30:00,
2013-11-28 06:34:00,20.0,15.7,30.21,SW,230,0.0,14.0,83,0.00,,,0.00,Wunderground v.1.13,2013-11-28 13:34:00,
2013-11-28 06:39:00,19.9,15.6,30.21,SW,230,0.0,14.0,83,0.00,,,0.00,Wunderground v.1.13,2013-11-28 13:39:00,
2013-11-28 06:44:00,19.9,15.6,30.21,SW,230,0.0,14.0,83,0.00,,,0.00,Wunderground v.1.13,2013-11-28 13:44:00,
2013-11-28 06:50:00,20.0,15.9,30.21,SW,230,0.0,14.0,84,0.00,,,0.00,Wunderground v.1.13,2013-11-28 13:50:00,
2013-11-28 06:55:00,20.2,16.1,30.21,SW,230,0.0,14.0,84,0.00,,,0.00,Wunderground v.1.13,2013-11-28 13:55:00,
2013-11-28 07:00:00,20.3,16.2,30.22,SW,230,0.0,14.0,84,0.00,,,0.00,Wunderground v.1.13,2013-11-28 14:00:00,
2013-11-28 07:04:00,20.5,16.4,30.22,SW,230,0.0,14.0,84,0.00,,,0.00,Wunderground v.1.13,2013-11-28 14:04:00,
2013-11-28 07:10:00,20.5,16.4,30.22,SW,230,0.0,14.0,84,0.00,,,0.00,Wunderground v.1.13,2013-11-28 14:10:00,
2013-11-28 07:15:00,20.6,16.5,30.22,SW,230,0.0,14.0,84,0.00,,,0.00,Wunderground v.1.13,2013-11-28 14:15:00,
2013-11-28 07:20:00,21.0,16.9,30.22,SW,230,0.0,14.0,84,0.00,,,0.00,Wunderground v.1.13,2013-11-28 14:20:00,
2013-11-28 07:24:00,21.3,17.2,30.22,SW,230,0.0,14.0,84,0.00,,,0.00,Wunderground v.1.13,2013-11-28 14:24:00,
2013-11-28 07:29:00,21.8,17.7,30.22,SW,230,0.0,14.0,84,0.00,,,0.00,Wunderground v.1.13,2013-11-28 14:29:00,
2013-11-28 07:35:00,22.5,18.4,30.23,SW,230,0.0,14.0,84,0.00,,,0.00,Wunderground v.1.13,2013-11-28 14:35:00,
2013-11-28 07:40:00,23.5,19.4,30.23,SW,230,0.0,14.0,84,0.00,,,0.00,Wunderground v.1.13,2013-11-28 14:40:00,
2013-11-28 07:45:00,23.9,19.2,30.24,SW,230,0.0,14.0,82,0.00,,,0.00,Wunderground v.1.13,2013-11-28 14:45:00,
2013-11-28 07:50:00,24.2,19.5,30.24,SW,230,0.0,14.0,82,0.00,,,0.00,Wunderground v.1.13,2013-11-28 14:50:00,
2013-11-28 07:55:00,24.4,19.4,30.24,SW,230,0.0,14.0,81,0.00,,,0.00,Wunderground v.1.13,2013-11-28 14:55:00,
2013-11-28 08:05:00,24.8,19.5,30.25,SW,230,0.0,14.0,80,0.00,,,0.00,Wunderground v.1.13,2013-11-28 15:05:00,
2013-11-28 08:10:00,25.3,20.0,30.25,SW,230,0.0,14.0,80,0.00,,,0.00,Wunderground v.1.13,2013-11-28 15:10:00,
2013-11-28 08:20:00,26.7,21.1,30.25,SW,230,0.0,14.0,79,0.00,,,0.00,Wunderground v.1.13,2013-11-28 15:20:00,
2013-11-28 08:25:00,27.3,21.6,30.25,SW,230,0.0,14.0,79,0.00,,,0.00,Wunderground v.1.13,2013-11-28 15:25:00,
2013-11-28 08:30:00,28.1,22.4,30.25,SW,230,0.0,14.0,79,0.00,,,0.00,Wunderground v.1.13,2013-11-28 15:30:00,
2013-11-28 08:34:00,29.0,23.6,30.25,SW,230,0.0,14.0,80,0.00,,,0.00,Wunderground v.1.13,2013-11-28 15:34:00,
2013-11-28 08:39:00,30.0,24.0,30.25,SW,230,0.0,14.0,78,0.00,,,0.00,Wunderground v.1.13,2013-11-28 15:39:00,
2013-11-28 08:44:00,30.3,23.0,30.25,SW,230,0.0,14.0,74,0.00,,,0.00,Wunderground v.1.13,2013-11-28 15:44:00,
2013-11-28 08:50:00,30.9,23.3,30.25,SW,230,0.0,14.0,73,0.00,,,0.00,Wunderground v.1.13,2013-11-28 15:50:00,
2013-11-28 08:55:00,32.1,24.1,30.25,SW,230,0.0,14.0,72,0.00,,,0.00,Wunderground v.1.13,2013-11-28 15:55:00,
2013-11-28 09:00:00,32.8,24.1,30.25,SW,230,0.0,14.0,70,0.00,,,0.00,Wunderground v.1.13,2013-11-28 16:00:00,
2013-11-28 09:05:00,33.1,23.3,30.25,NNW,342,0.0,14.0,67,0.00,,,0.00,Wunderground v.1.13,2013-11-28 16:05:00,
2013-11-28 09:09:00,32.9,22.0,30.25,North,9,0.0,14.0,64,0.00,,,0.00,Wunderground v.1.13,2013-11-28 16:09:00,
2013-11-28 09:14:00,32.9,22.0,30.25,North,360,0.0,14.0,64,0.00,,,0.00,Wunderground v.1.13,2013-11-28 16:14:00,
2013-11-28 09:20:00,33.1,21.9,30.25,NNE,17,1.0,1.0,63,0.00,,,0.00,Wunderground v.1.13,2013-11-28 16:20:00,
2013-11-28 09:30:00,33.1,21.9,30.25,NNW,339,0.0,14.0,63,0.00,,,0.00,Wunderground v.1.13,2013-11-28 16:30:00,
2013-11-28 09:35:00,33.2,22.0,30.25,NNE,19,1.0,1.0,63,0.00,,,0.00,Wunderground v.1.13,2013-11-28 16:35:00,
2013-11-28 09:39:00,33.1,21.5,30.25,NE,36,1.0,1.0,62,0.00,,,0.00,Wunderground v.1.13,2013-11-28 16:39:00,
2013-11-28 09:44:00,33.1,22.2,30.25,NE,47,0.0,14.0,64,0.00,,,0.00,Wunderground v.1.13,2013-11-28 16:44:00,
2013-11-28 09:49:00,33.1,22.2,30.26,NE,47,0.0,14.0,64,0.00,,,0.00,Wunderground v.1.13,2013-11-28 16:49:00,
2013-11-28 09:54:00,33.7,22.4,30.26,NE,47,0.0,14.0,63,0.00,,,0.00,Wunderground v.1.13,2013-11-28 16:54:00,
2013-11-28 10:00:00,34.4,23.1,30.26,NE,56,0.0,14.0,63,0.00,,,0.00,Wunderground v.1.13,2013-11-28 17:00:00,
2013-11-28 10:04:00,34.6,22.5,30.26,NE,40,0.0,14.0,61,0.00,,,0.00,Wunderground v.1.13,2013-11-28 17:04:00,
2013-11-28 10:09:00,34.9,23.2,30.26,NE,39,0.0,14.0,62,0.00,,,0.00,Wunderground v.1.13,2013-11-28 17:09:00,
2013-11-28 10:14:00,35.3,22.8,30.26,ENE,74,0.0,14.0,60,0.00,,,0.00,Wunderground v.1.13,2013-11-28 17:14:00,
2013-11-28 10:19:00,35.5,23.0,30.26,ENE,76,0.0,14.0,60,0.00,,,0.00,Wunderground v.1.13,2013-11-28 17:19:00,
2013-11-28 10:25:00,35.6,23.1,30.26,NE,34,0.0,14.0,60,0.00,,,0.00,Wunderground v.1.13,2013-11-28 17:25:00,
2013-11-28 10:30:00,35.9,23.0,30.25,NE,34,0.0,14.0,59,0.00,,,0.00,Wunderground v.1.13,2013-11-28 17:30:00,
2013-11-28 10:34:00,36.2,22.8,30.25,NE,36,0.0,14.0,58,0.00,,,0.00,Wunderground v.1.13,2013-11-28 17:34:00,
2013-11-28 10:39:00,36.3,22.9,30.25,NE,35,0.0,14.0,58,0.00,,,0.00,Wunderground v.1.13,2013-11-28 17:39:00,
2013-11-28 10:44:00,36.2,23.2,30.25,NNE,26,0.0,14.0,59,0.00,,,0.00,Wunderground v.1.13,2013-11-28 17:44:00,
2013-11-28 10:49:00,36.9,23.1,30.25,NNE,33,0.0,14.0,57,0.00,,,0.00,Wunderground v.1.13,2013-11-28 17:49:00,
2013-11-28 10:55:00,37.3,23.0,30.25,SE,146,0.0,14.0,56,0.00,,,0.00,Wunderground v.1.13,2013-11-28 17:55:00,
2013-11-28 11:04:00,37.8,22.6,30.24,SE,146,1.0,1.0,54,0.00,,,0.00,Wunderground v.1.13,2013-11-28 18:04:00,
2013-11-28 11:09:00,38.0,23.3,30.24,SSE,148,0.0,14.0,55,0.00,,,0.00,Wunderground v.1.13,2013-11-28 18:09:00,
2013-11-28 11:14:00,38.2,23.0,30.24,SSE,148,0.0,14.0,54,0.00,,,0.00,Wunderground v.1.13,2013-11-28 18:14:00,
2013-11-28 11:19:00,38.6,22.5,30.24,SSE,148,0.0,14.0,52,0.00,,,0.00,Wunderground v.1.13,2013-11-28 18:19:00,
2013-11-28 11:24:00,38.3,22.6,30.24,SSE,148,0.0,14.0,53,0.00,,,0.00,Wunderground v.1.13,2013-11-28 18:24:00,
2013-11-28 11:30:00,38.8,22.7,30.24,SSE,148,0.0,14.0,52,0.00,,,0.00,Wunderground v.1.13,2013-11-28 18:30:00,
2013-11-28 11:35:00,38.6,22.5,30.24,SSE,148,0.0,14.0,52,0.00,,,0.00,Wunderground v.1.13,2013-11-28 18:35:00,
2013-11-28 11:40:00,38.9,22.8,30.24,SSE,148,0.0,14.0,52,0.00,,,0.00,Wunderground v.1.13,2013-11-28 18:40:00,
2013-11-28 11:44:00,39.1,22.5,30.24,SSE,148,0.0,14.0,51,0.00,,,0.00,Wunderground v.1.13,2013-11-28 18:44:00,
2013-11-28 11:50:00,39.3,22.2,30.24,SSE,148,0.0,14.0,50,0.00,,,0.00,Wunderground v.1.13,2013-11-28 18:50:00,
2013-11-28 11:55:00,39.2,22.6,30.24,South,178,0.0,14.0,51,0.00,,,0.00,Wunderground v.1.13,2013-11-28 18:55:00,
2013-11-28 12:00:00,38.8,22.7,30.23,South,176,0.0,14.0,52,0.00,,,0.00,Wunderground v.1.13,2013-11-28 19:00:00,
2013-11-28 12:05:00,39.2,22.6,30.23,South,176,0.0,14.0,51,0.00,,,0.00,Wunderground v.1.13,2013-11-28 19:05:00,
2013-11-28 12:10:00,39.9,23.7,30.23,South,174,0.0,14.0,52,0.00,,,0.00,Wunderground v.1.13,2013-11-28 19:10:00,
2013-11-28 12:14:00,39.8,23.1,30.23,ESE,116,0.0,14.0,51,0.00,,,0.00,Wunderground v.1.13,2013-11-28 19:14:00,
2013-11-28 12:24:00,39.6,22.9,30.23,SE,144,1.0,1.0,51,0.00,,,0.00,Wunderground v.1.13,2013-11-28 19:24:00,
2013-11-28 12:29:00,39.9,23.2,30.23,SE,140,0.0,14.0,51,0.00,,,0.00,Wunderground v.1.13,2013-11-28 19:29:00,
2013-11-28 12:35:00,39.9,23.2,30.23,SE,131,0.0,14.0,51,0.00,,,0.00,Wunderground v.1.13,2013-11-28 19:35:00,
2013-11-28 12:40:00,40.6,23.4,30.23,East,94,0.0,14.0,50,0.00,,,0.00,Wunderground v.1.13,2013-11-28 19:40:00,
2013-11-28 12:44:00,40.6,22.4,30.23,SE,134,0.0,14.0,48,0.00,,,0.00,Wunderground v.1.13,2013-11-28 19:44:00,
2013-11-28 12:49:00,40.5,21.8,30.22,SSE,158,0.0,14.0,47,0.00,,,0.00,Wunderground v.1.13,2013-11-28 19:49:00,
2013-11-28 12:55:00,39.6,22.0,30.22,SSE,158,1.0,1.0,49,0.00,,,0.00,Wunderground v.1.13,2013-11-28 19:55:00,
2013-11-28 13:00:00,39.6,22.9,30.22,SSE,158,0.0,14.0,51,0.00,,,0.00,Wunderground v.1.13,2013-11-28 20:00:00,
2013-11-28 13:05:00,40.3,23.1,30.22,SE,130,0.0,14.0,50,0.00,,,0.00,Wunderground v.1.13,2013-11-28 20:05:00,
2013-11-28 13:09:00,40.1,22.9,30.22,SE,130,0.0,14.0,50,0.00,,,0.00,Wunderground v.1.13,2013-11-28 20:09:00,
2013-11-28 13:14:00,40.3,23.1,30.22,SSE,148,1.0,1.0,50,0.00,,,0.00,Wunderground v.1.13,2013-11-28 20:14:00,
2013-11-28 13:19:00,40.2,23.0,30.21,SE,144,1.0,1.0,50,0.00,,,0.00,Wunderground v.1.13,2013-11-28 20:19:00,
2013-11-28 13:24:00,40.8,24.1,30.21,SE,143,0.0,14.0,51,0.00,,,0.00,Wunderground v.1.13,2013-11-28 20:24:00,
2013-11-28 13:30:00,41.6,23.8,30.21,SE,136,0.0,14.0,49,0.00,,,0.00,Wunderground v.1.13,2013-11-28 20:30:00,
2013-11-28 13:35:00,41.6,23.3,30.21,ESE,117,0.0,14.0,48,0.00,,,0.00,Wunderground v.1.13,2013-11-28 20:35:00,
2013-11-28 13:39:00,41.5,23.2,30.21,SE,146,1.0,1.0,48,0.00,,,0.00,Wunderground v.1.13,2013-11-28 20:39:00,
2013-11-28 13:44:00,41.3,23.1,30.21,SE,140,1.0,1.0,48,0.00,,,0.00,Wunderground v.1.13,2013-11-28 20:44:00,
2013-11-28 13:49:00,41.1,22.9,30.21,SSE,148,1.0,1.0,48,0.00,,,0.00,Wunderground v.1.13,2013-11-28 20:49:00,
2013-11-28 13:55:00,41.1,22.9,30.21,SE,137,1.0,1.0,48,0.00,,,0.00,Wunderground v.1.13,2013-11-28 20:55:00,
2013-11-28 14:00:00,41.1,22.9,30.21,ESE,121,1.0,1.0,48,0.00,,,0.00,Wunderground v.1.13,2013-11-28 21:00:00,
2013-11-28 14:05:00,41.2,23.0,30.21,SE,145,1.0,14.0,48,0.00,,,0.00,Wunderground v.1.13,2013-11-28 21:05:00,
2013-11-28 14:09:00,41.1,22.9,30.21,East,98,1.0,1.0,48,0.00,,,0.00,Wunderground v.1.13,2013-11-28 21:09:00,
2013-11-28 14:19:00,40.8,23.1,30.21,East,97,1.0,1.0,49,0.00,,,0.00,Wunderground v.1.13,2013-11-28 21:19:00,
2013-11-28 14:24:00,40.6,23.4,30.21,SE,142,1.0,1.0,50,0.00,,,0.00,Wunderground v.1.13,2013-11-28 21:24:00,
2013-11-28 14:30:00,40.5,22.8,30.21,SSE,155,1.0,1.0,49,0.00,,,0.00,Wunderground v.1.13,2013-11-28 21:30:00,
2013-11-28 14:39:00,40.5,22.8,30.21,SE,128,0.0,14.0,49,0.00,,,0.00,Wunderground v.1.13,2013-11-28 21:39:00,
2013-11-28 14:49:00,40.6,22.9,30.21,SE,140,0.0,14.0,49,0.00,,,0.00,Wunderground v.1.13,2013-11-28 21:49:00,
2013-11-28 14:55:00,40.5,22.8,30.21,SE,131,0.0,14.0,49,0.00,,,0.00,Wunderground v.1.13,2013-11-28 21:55:00,
2013-11-28 15:00:00,40.2,23.0,30.21,SE,143,0.0,14.0,50,0.00,,,0.00,Wunderground v.1.13,2013-11-28 22:00:00,
2013-11-28 15:04:00,40.1,23.4,30.21,SE,142,0.0,14.0,51,0.00,,,0.00,Wunderground v.1.13,2013-11-28 22:04:00,
2013-11-28 15:09:00,39.8,23.1,30.21,SE,136,0.0,14.0,51,0.00,,,0.00,Wunderground v.1.13,2013-11-28 22:09:00,
2013-11-28 15:14:00,39.5,23.3,30.21,ESE,121,0.0,14.0,52,0.00,,,0.00,Wunderground v.1.13,2013-11-28 22:14:00,
2013-11-28 15:20:00,39.2,22.6,30.22,ESE,121,0.0,14.0,51,0.00,,,0.00,Wunderground v.1.13,2013-11-28 22:20:00,
2013-11-28 15:25:00,38.9,22.3,30.22,SE,128,0.0,14.0,51,0.00,,,0.00,Wunderground v.1.13,2013-11-28 22:25:00,
2013-11-28 15:29:00,38.6,22.5,30.22,SE,128,0.0,14.0,52,0.00,,,0.00,Wunderground v.1.13,2013-11-28 22:29:00,
2013-11-28 15:34:00,38.5,22.8,30.22,SE,127,0.0,14.0,53,0.00,,,0.00,Wunderground v.1.13,2013-11-28 22:34:00,
2013-11-28 15:44:00,38.2,22.6,30.22,ESE,109,0.0,14.0,53,0.00,,,0.00,Wunderground v.1.13,2013-11-28 22:44:00,
2013-11-28 15:49:00,37.8,22.6,30.22,ESE,105,0.0,14.0,54,0.00,,,0.00,Wunderground v.1.13,2013-11-28 22:49:00,
2013-11-28 15:55:00,37.5,22.8,30.22,NE,54,0.0,14.0,55,0.00,,,0.00,Wunderground v.1.13,2013-11-28 22:55:00,
2013-11-28 15:59:00,37.2,22.5,30.22,SE,139,0.0,14.0,55,0.00,,,0.00,Wunderground v.1.13,2013-11-28 22:59:00,
2013-11-28 16:04:00,36.8,22.6,30.22,SSE,162,0.0,14.0,56,0.00,,,0.00,Wunderground v.1.13,2013-11-28 23:04:00,
2013-11-28 16:09:00,36.3,22.1,30.22,ESE,111,0.0,14.0,56,0.00,,,0.00,Wunderground v.1.13,2013-11-28 23:09:00,
2013-11-28 16:14:00,35.9,22.1,30.22,ESE,105,0.0,14.0,57,0.00,,,0.00,Wunderground v.1.13,2013-11-28 23:14:00,
2013-11-28 16:19:00,35.5,21.8,30.22,ESE,103,0.0,14.0,57,0.00,,,0.00,Wunderground v.1.13,2013-11-28 23:19:00,
2013-11-28 16:24:00,35.0,21.7,30.22,ESE,103,0.0,14.0,58,0.00,,,0.00,Wunderground v.1.13,2013-11-28 23:24:00,
2013-11-28 16:29:00,34.7,21.8,30.22,ESE,113,0.0,14.0,59,0.00,,,0.00,Wunderground v.1.13,2013-11-28 23:29:00,
2013-11-28 16:34:00,34.3,21.4,30.23,ESE,113,0.0,14.0,59,0.00,,,0.00,Wunderground v.1.13,2013-11-28 23:34:00,
2013-11-28 16:44:00,33.4,21.4,30.23,ESE,114,0.0,14.0,61,0.00,,,0.00,Wunderground v.1.13,2013-11-28 23:44:00,
2013-11-28 16:50:00,32.9,21.3,30.23,ESE,113,0.0,14.0,62,0.00,,,0.00,Wunderground v.1.13,2013-11-28 23:50:00,
2013-11-28 16:55:00,32.5,21.3,30.23,ESE,114,0.0,14.0,63,0.00,,,0.00,Wunderground v.1.13,2013-11-28 23:55:00,
2013-11-28 17:00:00,32.2,21.0,30.23,ESE,115,0.0,14.0,63,0.00,,,0.00,Wunderground v.1.13,2013-11-29 00:00:00,
2013-11-28 17:04:00,31.9,21.1,30.23,ESE,115,0.0,14.0,64,0.00,,,0.00,Wunderground v.1.13,2013-11-29 00:04:00,
2013-11-28 17:09:00,31.6,20.8,30.23,ESE,115,0.0,14.0,64,0.00,,,0.00,Wunderground v.1.13,2013-11-29 00:09:00,
2013-11-28 17:14:00,31.5,21.1,30.23,ESE,115,0.0,14.0,65,0.00,,,0.00,Wunderground v.1.13,2013-11-29 00:14:00,
2013-11-28 17:20:00,31.2,20.8,30.23,ESE,115,0.0,14.0,65,0.00,,,0.00,Wunderground v.1.13,2013-11-29 00:20:00,
2013-11-28 17:24:00,30.9,20.9,30.23,ESE,115,0.0,14.0,66,0.00,,,0.00,Wunderground v.1.13,2013-11-29 00:24:00,
2013-11-28 17:29:00,30.7,21.0,30.23,ESE,115,0.0,14.0,67,0.00,,,0.00,Wunderground v.1.13,2013-11-29 00:29:00,
2013-11-28 17:34:00,30.4,20.7,30.23,ESE,115,0.0,14.0,67,0.00,,,0.00,Wunderground v.1.13,2013-11-29 00:34:00,
2013-11-28 17:40:00,30.1,20.8,30.23,ESE,116,0.0,14.0,68,0.00,,,0.00,Wunderground v.1.13,2013-11-29 00:40:00,
2013-11-28 17:45:00,29.8,20.5,30.24,ESE,115,0.0,14.0,68,0.00,,,0.00,Wunderground v.1.13,2013-11-29 00:45:00,
2013-11-28 17:50:00,29.7,20.8,30.24,ESE,121,0.0,14.0,69,0.00,,,0.00,Wunderground v.1.13,2013-11-29 00:50:00,
2013-11-28 17:54:00,29.5,20.6,30.24,East,98,0.0,14.0,69,0.00,,,0.00,Wunderground v.1.13,2013-11-29 00:54:00,
2013-11-28 17:59:00,29.4,20.8,30.25,SE,134,0.0,14.0,70,0.00,,,0.00,Wunderground v.1.13,2013-11-29 00:59:00,
2013-11-28 18:04:00,29.1,20.5,30.25,SE,134,0.0,14.0,70,0.00,,,0.00,Wunderground v.1.13,2013-11-29 01:04:00,
2013-11-28 18:10:00,28.8,20.6,30.25,SE,138,0.0,14.0,71,0.00,,,0.00,Wunderground v.1.13,2013-11-29 01:10:00,
2013-11-28 18:14:00,28.8,20.6,30.25,SE,138,0.0,14.0,71,0.00,,,0.00,Wunderground v.1.13,2013-11-29 01:14:00,
2013-11-28 18:19:00,28.7,20.8,30.25,SE,138,0.0,14.0,72,0.00,,,0.00,Wunderground v.1.13,2013-11-29 01:19:00,
2013-11-28 18:24:00,28.7,20.8,30.25,SE,138,0.0,14.0,72,0.00,,,0.00,Wunderground v.1.13,2013-11-29 01:24:00,
2013-11-28 18:29:00,28.7,20.8,30.25,SE,138,0.0,14.0,72,0.00,,,0.00,Wunderground v.1.13,2013-11-29 01:29:00,
2013-11-28 18:35:00,28.7,21.1,30.25,SE,138,0.0,14.0,73,0.00,,,0.00,Wunderground v.1.13,2013-11-29 01:35:00,
2013-11-28 18:44:00,28.7,20.8,30.25,SE,140,0.0,14.0,72,0.00,,,0.00,Wunderground v.1.13,2013-11-29 01:44:00,
2013-11-28 18:49:00,28.5,20.9,30.25,SE,140,0.0,14.0,73,0.00,,,0.00,Wunderground v.1.13,2013-11-29 01:49:00,
2013-11-28 18:54:00,28.4,20.8,30.25,SE,140,0.0,14.0,73,0.00,,,0.00,Wunderground v.1.13,2013-11-29 01:54:00,
2013-11-28 19:00:00,28.2,20.7,30.25,SE,140,0.0,14.0,73,0.00,,,0.00,Wunderground v.1.13,2013-11-29 02:00:00,
2013-11-28 19:05:00,28.2,20.7,30.25,SSE,150,0.0,14.0,73,0.00,,,0.00,Wunderground v.1.13,2013-11-29 02:05:00,
2013-11-28 19:09:00,28.2,21.0,30.25,SSE,150,0.0,14.0,74,0.00,,,0.00,Wunderground v.1.13,2013-11-29 02:09:00,
2013-11-28 19:14:00,28.1,20.9,30.25,SSE,150,0.0,14.0,74,0.00,,,0.00,Wunderground v.1.13,2013-11-29 02:14:00,
2013-11-28 19:19:00,27.9,20.7,30.25,SSE,150,0.0,14.0,74,0.00,,,0.00,Wunderground v.1.13,2013-11-29 02:19:00,
2013-11-28 19:25:00,27.9,20.7,30.25,SSE,150,0.0,14.0,74,0.00,,,0.00,Wunderground v.1.13,2013-11-29 02:25:00,
2013-11-28 19:30:00,27.9,21.0,30.25,SSE,155,0.0,14.0,75,0.00,,,0.00,Wunderground v.1.13,2013-11-29 02:30:00,
2013-11-28 19:34:00,27.8,20.9,30.25,SSE,150,0.0,14.0,75,0.00,,,0.00,Wunderground v.1.13,2013-11-29 02:34:00,
2013-11-28 19:39:00,27.6,20.7,30.25,SSE,150,0.0,14.0,75,0.00,,,0.00,Wunderground v.1.13,2013-11-29 02:39:00,
2013-11-28 19:44:00,27.6,21.0,30.25,SSE,153,0.0,14.0,76,0.00,,,0.00,Wunderground v.1.13,2013-11-29 02:44:00,
2013-11-28 19:49:00,27.5,20.9,30.26,SSE,154,0.0,14.0,76,0.00,,,0.00,Wunderground v.1.13,2013-11-29 02:49:00,
2013-11-28 19:59:00,27.3,20.7,30.26,SSE,159,1.0,1.0,76,0.00,,,0.00,Wunderground v.1.13,2013-11-29 02:59:00,
2013-11-28 20:05:00,27.3,20.7,30.26,SSE,157,0.0,14.0,76,0.00,,,0.00,Wunderground v.1.13,2013-11-29 03:05:00,
2013-11-28 20:09:00,27.3,21.0,30.26,SSE,153,1.0,14.0,77,0.00,,,0.00,Wunderground v.1.13,2013-11-29 03:09:00,
2013-11-28 20:14:00,27.2,20.9,30.26,SSE,150,1.0,1.0,77,0.00,,,0.00,Wunderground v.1.13,2013-11-29 03:14:00,
2013-11-28 20:19:00,27.2,20.9,30.26,SSE,161,1.0,14.0,77,0.00,,,0.00,Wunderground v.1.13,2013-11-29 03:19:00,
2013-11-28 20:24:00,27.2,20.9,30.26,SSE,154,1.0,1.0,77,0.00,,,0.00,Wunderground v.1.13,2013-11-29 03:24:00,
2013-11-28 20:30:00,27.2,20.9,30.26,South,176,1.0,1.0,77,0.00,,,0.00,Wunderground v.1.13,2013-11-29 03:30:00,
2013-11-28 20:35:00,27.0,20.7,30.26,SSE,166,1.0,1.0,77,0.00,,,0.00,Wunderground v.1.13,2013-11-29 03:35:00,
2013-11-28 20:40:00,26.9,21.0,30.26,SE,138,0.0,14.0,78,0.00,,,0.00,Wunderground v.1.13,2013-11-29 03:40:00,
2013-11-28 20:44:00,26.9,21.0,30.26,SSE,157,1.0,1.0,78,0.00,,,0.00,Wunderground v.1.13,2013-11-29 03:44:00,
2013-11-28 20:49:00,26.7,20.8,30.26,SSE,157,0.0,14.0,78,0.00,,,0.00,Wunderground v.1.13,2013-11-29 03:49:00,
2013-11-28 20:54:00,26.6,20.7,30.26,SSE,157,0.0,14.0,78,0.00,,,0.00,Wunderground v.1.13,2013-11-29 03:54:00,
2013-11-28 21:00:00,26.4,20.8,30.26,SSE,156,0.0,14.0,79,0.00,,,0.00,Wunderground v.1.13,2013-11-29 04:00:00,
2013-11-28 21:05:00,26.4,20.8,30.26,SE,141,0.0,14.0,79,0.00,,,0.00,Wunderground v.1.13,2013-11-29 04:05:00,
2013-11-28 21:09:00,26.3,20.7,30.26,SE,141,1.0,1.0,79,0.00,,,0.00,Wunderground v.1.13,2013-11-29 04:09:00,
2013-11-28 21:14:00,26.1,20.8,30.26,SE,146,1.0,1.0,80,0.00,,,0.00,Wunderground v.1.13,2013-11-29 04:14:00,
2013-11-28 21:20:00,26.0,20.7,30.26,SE,146,0.0,14.0,80,0.00,,,0.00,Wunderground v.1.13,2013-11-29 04:20:00,
2013-11-28 21:25:00,26.0,20.7,30.26,SSE,155,1.0,14.0,80,0.00,,,0.00,Wunderground v.1.13,2013-11-29 04:25:00,
2013-11-28 21:34:00,25.7,20.4,30.26,SSE,147,1.0,1.0,80,0.00,,,0.00,Wunderground v.1.13,2013-11-29 04:34:00,
2013-11-28 21:39:00,25.7,20.4,30.26,SSE,157,1.0,1.0,80,0.00,,,0.00,Wunderground v.1.13,2013-11-29 04:39:00,
2013-11-28 21:44:00,25.6,20.6,30.26,SSE,156,1.0,14.0,81,0.00,,,0.00,Wunderground v.1.13,2013-11-29 04:44:00,
2013-11-28 21:50:00,25.4,20.4,30.26,SSE,156,1.0,1.0,81,0.00,,,0.00,Wunderground v.1.13,2013-11-29 04:50:00,
2013-11-28 21:55:00,25.4,20.4,30.26,SSE,149,1.0,1.0,81,0.00,,,0.00,Wunderground v.1.13,2013-11-29 04:55:00,
2013-11-28 21:59:00,25.3,20.3,30.26,SSE,154,1.0,1.0,81,0.00,,,0.00,Wunderground v.1.13,2013-11-29 04:59:00,
2013-11-28 22:04:00,25.1,20.1,30.26,SSE,164,1.0,14.0,81,0.00,,,0.00,Wunderground v.1.13,2013-11-29 05:04:00,
2013-11-28 22:10:00,25.0,20.3,30.26,SSE,147,2.0,2.0,82,0.00,,,0.00,Wunderground v.1.13,2013-11-29 05:10:00,
2013-11-28 22:15:00,24.8,20.1,30.26,SE,138,2.0,2.0,82,0.00,,,0.00,Wunderground v.1.13,2013-11-29 05:15:00,
2013-11-28 22:19:00,24.8,20.1,30.26,SE,138,2.0,2.0,82,0.00,,,0.00,Wunderground v.1.13,2013-11-29 05:19:00,
2013-11-28 22:24:00,24.7,20.0,30.26,SE,144,2.0,2.0,82,0.00,,,0.00,Wunderground v.1.13,2013-11-29 05:24:00,
2013-11-28 22:29:00,24.5,19.8,30.26,SE,145,1.0,14.0,82,0.00,,,0.00,Wunderground v.1.13,2013-11-29 05:29:00,
2013-11-28 22:34:00,24.4,19.7,30.25,SSE,152,1.0,1.0,82,0.00,,,0.00,Wunderground v.1.13,2013-11-29 05:34:00,
2013-11-28 22:39:00,24.4,20.0,30.25,SSE,151,1.0,14.0,83,0.00,,,0.00,Wunderground v.1.13,2013-11-29 05:39:00,
2013-11-28 22:45:00,24.2,19.8,30.26,SE,141,1.0,14.0,83,0.00,,,0.00,Wunderground v.1.13,2013-11-29 05:45:00,
2013-11-28 22:49:00,24.2,19.8,30.26,SSE,150,1.0,14.0,83,0.00,,,0.00,Wunderground v.1.13,2013-11-29 05:49:00,
2013-11-28 22:54:00,24.1,19.7,30.26,SE,146,1.0,1.0,83,0.00,,,0.00,Wunderground v.1.13,2013-11-29 05:54:00,
2013-11-28 22:59:00,23.9,19.5,30.26,SSE,150,1.0,1.0,83,0.00,,,0.00,Wunderground v.1.13,2013-11-29 05:59:00,
2013-11-28 23:05:00,23.8,19.4,30.25,SSE,151,1.0,1.0,83,0.00,,,0.00,Wunderground v.1.13,2013-11-29 06:05:00,
2013-11-28 23:10:00,23.6,19.2,30.25,SSE,150,0.0,14.0,83,0.00,,,0.00,Wunderground v.1.13,2013-11-29 06:10:00,
2013-11-28 23:15:00,23.6,19.2,30.25,SSE,150,0.0,14.0,83,0.00,,,0.00,Wunderground v.1.13,2013-11-29 06:15:00,
2013-11-28 23:20:00,23.3,18.9,30.25,SSE,151,0.0,14.0,83,0.00,,,0.00,Wunderground v.1.13,2013-11-29 06:20:00,
2013-11-28 23:24:00,23.2,19.1,30.25,SSE,151,0.0,14.0,84,0.00,,,0.00,Wunderground v.1.13,2013-11-29 06:24:00,
2013-11-28 23:29:00,23.0,18.9,30.25,SSE,151,0.0,14.0,84,0.00,,,0.00,Wunderground v.1.13,2013-11-29 06:29:00,
2013-11-28 23:34:00,22.9,18.8,30.25,SSE,151,0.0,14.0,84,0.00,,,0.00,Wunderground v.1.13,2013-11-29 06:34:00,
2013-11-28 23:39:00,22.7,18.6,30.25,SSE,151,0.0,14.0,84,0.00,,,0.00,Wunderground v.1.13,2013-11-29 06:39:00,
2013-11-28 23:45:00,22.5,18.4,30.24,SSE,151,0.0,14.0,84,0.00,,,0.00,Wunderground v.1.13,2013-11-29 06:45:00,
2013-11-28 23:50:00,22.5,18.7,30.24,SSE,147,0.0,14.0,85,0.00,,,0.00,Wunderground v.1.13,2013-11-29 06:50:00,
2013-11-28 23:54:00,22.7,18.9,30.24,SSE,147,0.0,14.0,85,0.00,,,0.00,Wunderground v.1.13,2013-11-29 06:54:00,
2013-11-28 23:59:00,22.5,18.7,30.24,SSE,147,0.0,14.0,85,0.00,,,0.00,Wunderground v.1.13,2013-11-29 06:59:00,